STARLINK-34130 (64736 NORAD) Tracking and Keplerian Element Data

This shows tracking and keplerian element data for the satellite.

Feedback or suggestion? Click here.




ElementValue
Catalog64736
NameSTARLINK-34130
Epoch Orbit2744
Epoch Day353.55775475
Epoch Year2025
RAAN193.2206
Inclination53.1581
Eccentricity0.0001707
Argument of Perigee85.0768
Mean Anonmoly275.0428
Mean Motion15.30203934
Decay Rate0.00019789
L11 64736U 25144N 25353.55775475 .00019789 00000+0 67839-3 0 9994
L22 64736 53.1581 193.2206 0001707 85.0768 275.0428 15.30203934 27448



Live tracking and technical data element details for STARLINK-34130 (NORAD 64736). STARLINK-34130 can be tracked NOW for your location showing map with azimuth and elevation plus other details from your city location.







IsCatalogInMostPopularTable: catalog: 64736, numindb: 3
Update: records affected: 1



GetName: 64736 STARLINK-34130

Hit Count: updated at: Sun, 08 Feb 2026 08:51:17 GMT